| time (UTC) | temp F | wind direction | speed MPH | gust MPH | rain 1hr in | rain 24hr in | rain mn in | humidity % | barometer mb |
| 20260506102259 | 55 | 17 | 2.0 | 3.0 | 0.00 | 0.00 | 0.00 | 88 | 1059.4 |
| 20260506101757 | 55 | 12 | 1.0 | 7.0 | 0.00 | 0.00 | 0.00 | 88 | 1059.5 |
| 20260506101252 | 55 | 27 | 1.0 | 3.0 | 0.00 | 0.00 | 0.00 | 88 | 1059.3 |
| 20260506100750 | 55 | 14 | 2.0 | 3.0 | 0.00 | 0.00 | 0.00 | 89 | 1059.2 |
| 20260506100248 | 55 | 40 | 2.0 | 3.0 | 0.00 | 0.00 | 0.00 | 88 | 1059.3 |
| 20260506095747 | 55 | 340 | 2.0 | 3.0 | 0.00 | 0.00 | 0.00 | 88 | 1059.4 |
| 20260506095243 | 55 | 260 | 2.0 | 3.0 | 0.00 | 0.00 | 0.00 | 88 | 1059.2 |
| 20260506094740 | 55 | 59 | 2.0 | 6.0 | 0.00 | 0.00 | 0.00 | 88 | 1059.4 |
| 20260506094238 | 55 | 314 | 3.0 | 4.0 | 0.00 | 0.00 | 0.00 | 88 | 1059.4 |
| 20260506093737 | 55 | 70 | 0.0 | 3.0 | 0.00 | 0.00 | 0.00 | 88 | 1059.2 |
| 20260506093233 | 55 | 9 | 3.0 | 6.0 | 0.00 | 0.00 | 0.00 | 88 | 1059.2 |
| 20260506092731 | 55 | 22 | 2.0 | 3.0 | 0.00 | 0.00 | 0.00 | 88 | 1059.1 |
| 20260506092229 | 55 | 33 | 2.0 | 4.0 | 0.00 | 0.00 | 0.00 | 88 | 1059.0 |
| 20260506091726 | 55 | 40 | 1.0 | 4.0 | 0.00 | 0.00 | 0.00 | 88 | 1058.8 |
| 20260506091223 | 55 | 341 | 2.0 | 6.0 | 0.00 | 0.00 | 0.00 | 88 | 1059.0 |
| 20260506090721 | 55 | 39 | 2.0 | 4.0 | 0.00 | 0.00 | 0.00 | 89 | 1059.0 |
| 20260506090218 | 55 | 40 | 3.0 | 4.0 | 0.00 | 0.00 | 0.00 | 89 | 1058.7 |
| 20260506085715 | 55 | 1 | 3.0 | 6.0 | 0.00 | 0.00 | 0.00 | 89 | 1058.8 |
| 20260506085211 | 55 | 323 | 1.0 | 4.0 | 0.00 | 0.00 | 0.00 | 89 | 1058.8 |
| 20260506084708 | 55 | 53 | 0.0 | 3.0 | 0.00 | 0.00 | 0.00 | 89 | 1058.8 |
| 20260506084204 | 55 | 356 | 1.0 | 4.0 | 0.00 | 0.00 | 0.00 | 89 | 1059.1 |
| 20260506083701 | 56 | 357 | 2.0 | 3.0 | 0.00 | 0.00 | 0.00 | 89 | 1059.1 |
| 20260506083159 | 56 | 40 | 0.0 | 2.0 | 0.00 | 0.00 | 0.00 | 89 | 1058.8 |
| 20260506082656 | 56 | 45 | 1.0 | 6.0 | 0.00 | 0.00 | 0.00 | 89 | 1059.0 |
| 20260506082156 | 56 | 6 | 3.0 | 4.0 | 0.00 | 0.00 | 0.00 | 89 | 1058.8 |
| 20260506081654 | 56 | 21 | 2.0 | 4.0 | 0.00 | 0.00 | 0.00 | 89 | 1058.7 |
| 20260506081152 | 56 | 312 | 4.0 | 6.0 | 0.00 | 0.00 | 0.00 | 88 | 1058.9 |
| 20260506080650 | 56 | 354 | 1.0 | 4.0 | 0.00 | 0.00 | 0.00 | 89 | 1059.0 |
| 20260506080146 | 57 | 78 | 2.0 | 3.0 | 0.00 | 0.00 | 0.00 | 89 | 1058.8 |
| 20260506073130 | 56 | 334 | 3.0 | 3.0 | 0.00 | 0.00 | 0.00 | 90 | 1058.6 |
| 20260506072627 | 56 | 71 | 0.0 | 3.0 | 0.00 | 0.00 | 0.00 | 90 | 1058.6 |
| 20260506072125 | 56 | 16 | 2.0 | 4.0 | 0.00 | 0.00 | 0.00 | 90 | 1058.6 |
| 20260506071622 | 56 | 304 | 2.0 | 3.0 | 0.00 | 0.00 | 0.00 | 90 | 1058.6 |
| 20260506071119 | 57 | 355 | 0.0 | 3.0 | 0.00 | 0.00 | 0.00 | 90 | 1058.5 |
| 20260506070616 | 57 | 345 | 1.0 | 2.0 | 0.00 | 0.00 | 0.00 | 89 | 1058.6 |
| 20260506070114 | 57 | 305 | 0.0 | 2.0 | 0.00 | 0.00 | 0.00 | 89 | 1058.5 |
| 20260506062050 | 58 | 16 | 1.0 | 2.0 | 0.00 | 0.00 | 0.00 | 85 | 1057.9 |
| 20260506061546 | 59 | 36 | 1.0 | 3.0 | 0.00 | 0.00 | 0.00 | 84 | 1058.0 |
| 20260506061044 | 59 | 16 | 1.0 | 3.0 | 0.00 | 0.00 | 0.00 | 84 | 1058.0 |
| 20260506060542 | 59 | 3 | 0.0 | 2.0 | 0.00 | 0.00 | 0.00 | 84 | 1058.0 |
| 20260506051011 | 62 | 20 | 1.0 | 3.0 | 0.00 | 0.00 | 0.00 | 82 | 1058.3 |
| 20260506050509 | 63 | 46 | 4.0 | 6.0 | 0.00 | 0.00 | 0.00 | 81 | 1058.3 |
| 20260506044959 | 64 | 33 | 1.0 | 3.0 | 0.00 | 0.00 | 0.00 | 80 | 1058.3 |
| 20260506044458 | 64 | 79 | 0.0 | 4.0 | 0.00 | 0.00 | 0.00 | 80 | 1058.1 |
| 20260506043954 | 64 | 8 | 1.0 | 2.0 | 0.00 | 0.00 | 0.00 | 80 | 1058.2 |
| 20260506043451 | 64 | 63 | 2.0 | 3.0 | 0.00 | 0.00 | 0.00 | 79 | 1058.1 |
| 20260506042949 | 64 | 38 | 1.0 | 3.0 | 0.00 | 0.00 | 0.00 | 79 | 1058.0 |
| 20260506042448 | 64 | 40 | 5.0 | 8.0 | 0.00 | 0.00 | 0.00 | 79 | 1057.8 |
| 20260506041946 | 65 | 46 | 1.0 | 6.0 | 0.00 | 0.00 | 0.00 | 78 | 1057.9 |
| 20260506041444 | 65 | 78 | 1.0 | 3.0 | 0.00 | 0.00 | 0.00 | 78 | 1057.7 |
| 20260506040941 | 65 | 63 | 2.0 | 7.0 | 0.00 | 0.00 | 0.00 | 77 | 1057.9 |
| 20260506040438 | 65 | 74 | 1.0 | 4.0 | 0.00 | 0.00 | 0.00 | 77 | 1057.9 |
| 20260506035934 | 66 | 72 | 1.0 | 3.0 | 0.00 | 0.00 | 0.00 | 77 | 1057.7 |
| 20260506035432 | 66 | 285 | 2.0 | 3.0 | 0.00 | 0.00 | 0.00 | 77 | 1057.8 |
| 20260506034928 | 66 | 81 | 1.0 | 3.0 | 0.00 | 0.00 | 0.00 | 77 | 1057.6 |
| 20260506034425 | 66 | 45 | 1.0 | 2.0 | 0.00 | 0.00 | 0.00 | 76 | 1057.7 |
| 20260506033922 | 66 | 93 | 1.0 | 1.0 | 0.00 | 0.00 | 0.00 | 76 | 1057.8 |
| 20260506033420 | 66 | 41 | 1.0 | 3.0 | 0.00 | 0.00 | 0.00 | 75 | 1057.8 |
| 20260506032916 | 67 | 43 | 3.0 | 7.0 | 0.00 | 0.00 | 0.00 | 75 | 1057.7 |
| 20260506032413 | 67 | 5 | 1.0 | 4.0 | 0.00 | 0.00 | 0.00 | 74 | 1057.7 |
| 20260506031910 | 67 | 33 | 1.0 | 3.0 | 0.00 | 0.00 | 0.00 | 74 | 1057.7 |
| 20260506031407 | 67 | 29 | 2.0 | 3.0 | 0.00 | 0.00 | 0.00 | 73 | 1057.5 |
| 20260506030905 | 68 | 57 | 4.0 | 6.0 | 0.00 | 0.00 | 0.00 | 74 | 1057.3 |
| 20260506030403 | 68 | 17 | 1.0 | 3.0 | 0.00 | 0.00 | 0.00 | 74 | 1056.9 |
| 20260506025859 | 68 | 70 | 1.0 | 3.0 | 0.00 | 0.00 | 0.00 | 73 | 1056.8 |
| 20260506025356 | 68 | 20 | 1.0 | 4.0 | 0.00 | 0.00 | 0.00 | 74 | 1056.7 |
| 20260506024853 | 68 | 114 | 0.0 | 3.0 | 0.00 | 0.00 | 0.00 | 74 | 1056.6 |
| 20260506024350 | 69 | 29 | 1.0 | 6.0 | 0.00 | 0.00 | 0.00 | 74 | 1056.5 |
| 20260506023846 | 69 | 256 | 0.0 | 3.0 | 0.00 | 0.00 | 0.00 | 74 | 1056.4 |
| 20260506023343 | 69 | 31 | 2.0 | 8.0 | 0.00 | 0.00 | 0.00 | 73 | 1056.1 |
| 20260506022840 | 70 | 17 | 1.0 | 4.0 | 0.00 | 0.00 | 0.00 | 73 | 1055.9 |
| 20260506022337 | 70 | 20 | 1.0 | 4.0 | 0.00 | 0.00 | 0.00 | 73 | 1055.8 |
| 20260506021835 | 70 | 78 | 2.0 | 6.0 | 0.00 | 0.00 | 0.00 | 72 | 1055.9 |
| 20260506021332 | 71 | 79 | 3.0 | 7.0 | 0.00 | 0.00 | 0.00 | 72 | 1056.0 |
| 20260506020828 | 71 | 93 | 0.0 | 7.0 | 0.00 | 0.00 | 0.00 | 72 | 1055.7 |
| 20260506020326 | 72 | 26 | 2.0 | 6.0 | 0.00 | 0.00 | 0.00 | 72 | 1055.4 |
| 20260506015824 | 72 | 71 | 2.0 | 8.0 | 0.00 | 0.00 | 0.00 | 71 | 1055.2 |
| 20260506015321 | 73 | 350 | 1.0 | 3.0 | 0.00 | 0.00 | 0.00 | 71 | 1054.9 |
| 20260506014818 | 73 | 41 | 2.0 | 7.0 | 0.00 | 0.00 | 0.00 | 70 | 1054.9 |
| 20260506014315 | 73 | 19 | 3.0 | 6.0 | 0.00 | 0.00 | 0.00 | 70 | 1054.5 |
| 20260506013811 | 74 | 51 | 2.0 | 4.0 | 0.00 | 0.00 | 0.00 | 69 | 1054.4 |
| 20260506013309 | 75 | 17 | 4.0 | 4.0 | 0.00 | 0.00 | 0.00 | 68 | 1054.4 |
| 20260506012805 | 75 | 51 | 2.0 | 6.0 | 0.00 | 0.00 | 0.00 | 68 | 1054.4 |
| 20260506012307 | 76 | 21 | 3.0 | 4.0 | 0.00 | 0.00 | 0.00 | 68 | 1054.2 |
| 20260506011759 | 77 | 60 | 1.0 | 6.0 | 0.00 | 0.00 | 0.00 | 68 | 1054.1 |
| 20260506011256 | 78 | 69 | 3.0 | 4.0 | 0.00 | 0.00 | 0.00 | 67 | 1053.8 |
| 20260506010754 | 78 | 30 | 2.0 | 6.0 | 0.00 | 0.00 | 0.00 | 67 | 1053.6 |
| 20260506010251 | 79 | 52 | 1.0 | 4.0 | 0.00 | 0.00 | 0.00 | 66 | 1053.5 |
| 20260506005748 | 79 | 13 | 2.0 | 3.0 | 0.00 | 0.00 | 0.00 | 66 | 1053.4 |
| 20260506005245 | 80 | 24 | 0.0 | 1.0 | 0.00 | 0.00 | 0.00 | 69 | 1053.2 |
| 20260506004740 | 81 | 95 | 0.0 | 0.0 | 0.00 | 0.00 | 0.00 | 67 | 1053.2 |
| 20260506004239 | 82 | 104 | 0.0 | 0.0 | 0.00 | 0.00 | 0.00 | 67 | 1052.9 |
| 20260506003734 | 83 | 105 | 0.0 | 0.0 | 0.00 | 0.00 | 0.00 | 67 | 1053.1 |
| 20260506003231 | 84 | 106 | 0.0 | 0.0 | 0.00 | 0.00 | 0.00 | 63 | 1052.9 |
| 20260506002727 | 85 | 123 | 0.0 | 0.0 | 0.00 | 0.00 | 0.00 | 59 | 1053.0 |
| 20260506002223 | 85 | 128 | 0.0 | 0.0 | 0.00 | 0.00 | 0.00 | 58 | 1053.0 |
| 20260506001719 | 86 | 127 | 0.0 | 0.0 | 0.00 | 0.00 | 0.00 | 57 | 1053.0 |
| 20260506001217 | 87 | 114 | 0.0 | 0.0 | 0.00 | 0.00 | 0.00 | 56 | 1052.9 |
| 20260506000713 | 88 | 168 | 0.0 | 1.0 | 0.00 | 0.00 | 0.00 | 55 | 1053.0 |
| 20260506000212 | 89 | 143 | 0.0 | 0.0 | 0.00 | 0.00 | 0.00 | 54 | 1053.0 |
| 20260505235708 | 89 | 171 | 0.0 | 0.0 | 0.00 | 0.00 | 0.00 | 53 | 1053.2 |
| 20260505235206 | 89 | 180 | 0.0 | 1.0 | 0.00 | 0.00 | 0.00 | 52 | 1052.9 |
| 20260505234703 | 89 | 161 | 0.0 | 1.0 | 0.00 | 0.00 | 0.00 | 53 | 1053.2 |
| 20260505234200 | 89 | 231 | 0.0 | 1.0 | 0.00 | 0.00 | 0.00 | 53 | 1053.2 |
| 20260505233656 | 90 | 165 | 1.0 | 3.0 | 0.00 | 0.00 | 0.00 | 50 | 1053.2 |
| 20260505233154 | 91 | 181 | 0.0 | 1.0 | 0.00 | 0.00 | 0.00 | 51 | 1053.3 |
| 20260505232652 | 91 | 201 | 0.0 | 1.0 | 0.00 | 0.00 | 0.00 | 53 | 1053.3 |
| 20260505232149 | 91 | 222 | 0.0 | 1.0 | 0.00 | 0.00 | 0.00 | 52 | 1053.3 |
| 20260505231645 | 91 | 199 | 0.0 | 1.0 | 0.00 | 0.00 | 0.00 | 51 | 1053.3 |
| 20260505231145 | 91 | 274 | 0.0 | 1.0 | 0.00 | 0.00 | 0.00 | 52 | 1053.2 |
| 20260505230642 | 91 | 185 | 0.0 | 1.0 | 0.00 | 0.00 | 0.00 | 51 | 1053.0 |
| 20260505230138 | 90 | 210 | 1.0 | 1.0 | 0.00 | 0.00 | 0.00 | 52 | 1053.1 |
| 20260505225634 | 89 | 234 | 1.0 | 1.0 | 0.00 | 0.00 | 0.00 | 54 | 1053.1 |
| 20260505225131 | 89 | 137 | 0.0 | 0.0 | 0.00 | 0.00 | 0.00 | 56 | 1053.1 |
| 20260505224628 | 88 | 174 | 1.0 | 2.0 | 0.00 | 0.00 | 0.00 | 55 | 1053.2 |
| 20260505224125 | 88 | 211 | 1.0 | 1.0 | 0.00 | 0.00 | 0.00 | 55 | 1053.2 |
| 20260505223622 | 88 | 211 | 1.0 | 2.0 | 0.00 | 0.00 | 0.00 | 51 | 1053.1 |
| 20260505223118 | 89 | 228 | 1.0 | 3.0 | 0.00 | 0.00 | 0.00 | 52 | 1053.1 |
| 20260505222615 | 89 | 174 | 2.0 | 4.0 | 0.00 | 0.00 | 0.00 | 51 | 1053.2 |
| 20260505222111 | 89 | 248 | 2.0 | 3.0 | 0.00 | 0.00 | 0.00 | 50 | 1053.2 |
| 20260505221608 | 89 | 216 | 2.0 | 4.0 | 0.00 | 0.00 | 0.00 | 51 | 1053.4 |
| 20260505221105 | 89 | 200 | 3.0 | 4.0 | 0.00 | 0.00 | 0.00 | 50 | 1053.3 |
| 20260505220602 | 89 | 210 | 0.0 | 3.0 | 0.00 | 0.00 | 0.00 | 52 | 1053.4 |
| 20260505220100 | 90 | 208 | 2.0 | 6.0 | 0.00 | 0.00 | 0.00 | 49 | 1053.3 |
| 20260505215557 | 89 | 176 | 1.0 | 3.0 | 0.00 | 0.00 | 0.00 | 51 | 1053.3 |
| 20260505215055 | 91 | 213 | 2.0 | 3.0 | 0.00 | 0.00 | 0.00 | 48 | 1053.2 |
| 20260505214553 | 90 | 201 | 2.0 | 3.0 | 0.00 | 0.00 | 0.00 | 50 | 1053.1 |
| 20260505214050 | 89 | 207 | 2.0 | 3.0 | 0.00 | 0.00 | 0.00 | 51 | 1053.3 |
| 20260505213548 | 88 | 215 | 1.0 | 2.0 | 0.00 | 0.00 | 0.00 | 53 | 1053.2 |
| 20260505213044 | 89 | 230 | 2.0 | 4.0 | 0.00 | 0.00 | 0.00 | 48 | 1053.3 |
| 20260505212540 | 88 | 297 | 2.0 | 4.0 | 0.00 | 0.00 | 0.00 | 51 | 1053.3 |
| 20260505212038 | 88 | 272 | 4.0 | 6.0 | 0.00 | 0.00 | 0.00 | 49 | 1053.4 |
| 20260505211535 | 88 | 219 | 2.0 | 3.0 | 0.00 | 0.00 | 0.00 | 52 | 1053.4 |
| 20260505211031 | 88 | 256 | 4.0 | 7.0 | 0.00 | 0.00 | 0.00 | 50 | 1053.3 |
| 20260505210528 | 89 | 227 | 3.0 | 4.0 | 0.00 | 0.00 | 0.00 | 51 | 1053.6 |
| 20260505210025 | 89 | 218 | 2.0 | 3.0 | 0.00 | 0.00 | 0.00 | 49 | 1053.5 |
| 20260505205523 | 89 | 193 | 1.0 | 2.0 | 0.00 | 0.00 | 0.00 | 50 | 1053.5 |
| 20260505205020 | 88 | 202 | 2.0 | 7.0 | 0.00 | 0.00 | 0.00 | 54 | 1053.6 |
| 20260505204518 | 88 | 275 | 3.0 | 6.0 | 0.00 | 0.00 | 0.00 | 53 | 1053.6 |
| 20260505204015 | 88 | 237 | 2.0 | 6.0 | 0.00 | 0.00 | 0.00 | 55 | 1053.7 |
| 20260505203511 | 89 | 231 | 3.0 | 3.0 | 0.00 | 0.00 | 0.00 | 52 | 1053.8 |
| 20260505203008 | 88 | 205 | 2.0 | 4.0 | 0.00 | 0.00 | 0.00 | 56 | 1053.9 |
| 20260505202504 | 88 | 204 | 3.0 | 3.0 | 0.00 | 0.00 | 0.00 | 54 | 1054.1 |
| 20260505202000 | 88 | 237 | 6.0 | 8.0 | 0.00 | 0.00 | 0.00 | 54 | 1054.2 |
| 20260505201457 | 88 | 234 | 4.0 | 6.0 | 0.00 | 0.00 | 0.00 | 52 | 1054.2 |
| 20260505200955 | 88 | 260 | 4.0 | 8.0 | 0.00 | 0.00 | 0.00 | 53 | 1054.3 |
| 20260505200453 | 89 | 267 | 6.0 | 8.0 | 0.00 | 0.00 | 0.00 | 53 | 1054.2 |
| 20260505195948 | 88 | 210 | 2.0 | 6.0 | 0.00 | 0.00 | 0.00 | 55 | 1054.2 |
| 20260505195446 | 88 | 236 | 3.0 | 7.0 | 0.00 | 0.00 | 0.00 | 58 | 1054.2 |
| 20260505194943 | 87 | 222 | 4.0 | 6.0 | 0.00 | 0.00 | 0.00 | 55 | 1054.2 |
| 20260505194440 | 86 | 232 | 1.0 | 7.0 | 0.00 | 0.00 | 0.00 | 59 | 1054.4 |
| 20260505193940 | 86 | 244 | 3.0 | 7.0 | 0.00 | 0.00 | 0.00 | 58 | 1054.7 |
| 20260505193438 | 86 | 241 | 3.0 | 6.0 | 0.00 | 0.00 | 0.00 | 60 | 1054.4 |
| 20260505192935 | 87 | 201 | 7.0 | 9.0 | 0.00 | 0.00 | 0.00 | 58 | 1054.4 |
| 20260505192434 | 86 | 232 | 2.0 | 7.0 | 0.00 | 0.00 | 0.00 | 59 | 1054.9 |
| 20260505191931 | 86 | 229 | 3.0 | 4.0 | 0.00 | 0.00 | 0.00 | 61 | 1054.8 |
| 20260505191430 | 86 | 193 | 3.0 | 6.0 | 0.00 | 0.00 | 0.00 | 61 | 1054.7 |
| 20260505190926 | 85 | 208 | 5.0 | 8.0 | 0.00 | 0.00 | 0.00 | 60 | 1054.8 |
| 20260505190421 | 86 | 256 | 6.0 | 9.0 | 0.00 | 0.00 | 0.00 | 62 | 1054.8 |
| 20260505185916 | 86 | 329 | 4.0 | 7.0 | 0.00 | 0.00 | 0.00 | 63 | 1054.9 |
| 20260505185414 | 86 | 193 | 4.0 | 8.0 | 0.00 | 0.00 | 0.00 | 63 | 1055.0 |
| 20260505184910 | 85 | 177 | 3.0 | 9.0 | 0.00 | 0.00 | 0.00 | 60 | 1055.1 |
| 20260505184407 | 86 | 212 | 4.0 | 10.0 | 0.00 | 0.00 | 0.00 | 64 | 1054.9 |
| 20260505183904 | 86 | 222 | 5.0 | 9.0 | 0.00 | 0.00 | 0.00 | 64 | 1055.0 |
| 20260505183401 | 85 | 208 | 4.0 | 6.0 | 0.00 | 0.00 | 0.00 | 65 | 1055.0 |
| 20260505182857 | 85 | 211 | 4.0 | 6.0 | 0.00 | 0.00 | 0.00 | 65 | 1055.1 |
| 20260505182354 | 85 | 228 | 3.0 | 9.0 | 0.00 | 0.00 | 0.00 | 64 | 1055.3 |
| 20260505181851 | 85 | 194 | 2.0 | 4.0 | 0.00 | 0.00 | 0.00 | 67 | 1055.1 |
| 20260505181348 | 84 | 248 | 2.0 | 7.0 | 0.00 | 0.00 | 0.00 | 64 | 1055.5 |
| 20260505180845 | 85 | 173 | 2.0 | 8.0 | 0.00 | 0.00 | 0.00 | 63 | 1055.3 |
| 20260505180341 | 84 | 187 | 3.0 | 7.0 | 0.00 | 0.00 | 0.00 | 67 | 1055.4 |
| 20260505175838 | 84 | 202 | 4.0 | 6.0 | 0.00 | 0.00 | 0.00 | 65 | 1055.4 |
| 20260505175334 | 83 | 271 | 4.0 | 7.0 | 0.00 | 0.00 | 0.00 | 67 | 1055.4 |
| 20260505174831 | 83 | 215 | 3.0 | 10.0 | 0.00 | 0.00 | 0.00 | 68 | 1055.5 |
| 20260505174329 | 82 | 178 | 2.0 | 9.0 | 0.00 | 0.00 | 0.00 | 68 | 1055.6 |
| 20260505173824 | 82 | 209 | 6.0 | 7.0 | 0.00 | 0.00 | 0.00 | 68 | 1055.4 |
| 20260505173321 | 82 | 227 | 4.0 | 8.0 | 0.00 | 0.00 | 0.00 | 69 | 1055.3 |
| 20260505172818 | 82 | 259 | 6.0 | 8.0 | 0.00 | 0.00 | 0.00 | 68 | 1055.7 |
| 20260505172316 | 82 | 221 | 6.0 | 8.0 | 0.00 | 0.00 | 0.00 | 69 | 1055.6 |
| 20260505171810 | 83 | 192 | 4.0 | 7.0 | 0.00 | 0.00 | 0.00 | 66 | 1055.4 |
| 20260505171307 | 83 | 180 | 4.0 | 7.0 | 0.00 | 0.00 | 0.00 | 68 | 1055.5 |
| 20260505170803 | 82 | 196 | 2.0 | 4.0 | 0.00 | 0.00 | 0.00 | 70 | 1055.5 |
| 20260505170301 | 81 | 232 | 5.0 | 7.0 | 0.00 | 0.00 | 0.00 | 71 | 1055.4 |
| 20260505165755 | 81 | 231 | 7.0 | 9.0 | 0.00 | 0.00 | 0.00 | 70 | 1055.6 |
| 20260505165251 | 80 | 210 | 2.0 | 4.0 | 0.00 | 0.00 | 0.00 | 72 | 1055.6 |
| 20260505164747 | 79 | 188 | 1.0 | 2.0 | 0.00 | 0.00 | 0.00 | 76 | 1055.5 |
| 20260505164244 | 80 | 200 | 6.0 | 8.0 | 0.00 | 0.00 | 0.00 | 72 | 1055.6 |
| 20260505163742 | 79 | 218 | 4.0 | 8.0 | 0.00 | 0.00 | 0.00 | 75 | 1055.7 |
| 20260505163241 | 78 | 160 | 1.0 | 7.0 | 0.00 | 0.00 | 0.00 | 76 | 1055.7 |
| 20260505162737 | 78 | 205 | 4.0 | 6.0 | 0.00 | 0.00 | 0.00 | 77 | 1055.8 |
| 20260505162235 | 77 | 227 | 3.0 | 7.0 | 0.00 | 0.00 | 0.00 | 76 | 1055.5 |
| 20260505161731 | 77 | 208 | 3.0 | 6.0 | 0.00 | 0.00 | 0.00 | 77 | 1055.6 |
| 20260505161230 | 77 | 207 | 3.0 | 6.0 | 0.00 | 0.00 | 0.00 | 77 | 1055.7 |
| 20260505160726 | 76 | 194 | 6.0 | 7.0 | 0.00 | 0.00 | 0.00 | 78 | 1055.5 |
| 20260505160225 | 77 | 243 | 2.0 | 4.0 | 0.00 | 0.00 | 0.00 | 78 | 1055.4 |
| 20260505153203 | 76 | 229 | 4.0 | 7.0 | 0.00 | 0.00 | 0.00 | 80 | 1055.2 |
| 20260505152700 | 75 | 244 | 2.0 | 6.0 | 0.00 | 0.00 | 0.00 | 81 | 1055.4 |
| 20260505152156 | 75 | 193 | 3.0 | 4.0 | 0.00 | 0.00 | 0.00 | 80 | 1055.3 |
| 20260505151651 | 75 | 215 | 4.0 | 7.0 | 0.00 | 0.00 | 0.00 | 80 | 1055.4 |
| 20260505151149 | 75 | 200 | 1.0 | 6.0 | 0.00 | 0.00 | 0.00 | 82 | 1055.3 |
| 20260505150645 | 75 | 225 | 4.0 | 7.0 | 0.00 | 0.00 | 0.00 | 81 | 1055.4 |
| 20260505150142 | 74 | 196 | 2.0 | 7.0 | 0.00 | 0.00 | 0.00 | 82 | 1055.4 |
| 20260505140610 | 71 | 167 | 2.0 | 4.0 | 0.00 | 0.00 | 0.00 | 87 | 1055.3 |
| 20260505140108 | 71 | 162 | 1.0 | 4.0 | 0.00 | 0.00 | 0.00 | 88 | 1055.3 |
| 20260505125024 | 66 | 160 | 1.0 | 2.0 | 0.00 | 0.00 | 0.00 | 98 | 1054.5 |
| 20260505124520 | 66 | 241 | 0.0 | 2.0 | 0.00 | 0.00 | 0.00 | 98 | 1054.5 |
| 20260505124017 | 65 | 150 | 0.0 | 0.0 | 0.00 | 0.00 | 0.00 | 99 | 1054.7 |
| 20260505123514 | 64 | 167 | 0.0 | 1.0 | 0.00 | 0.00 | 0.00 | 99 | 1054.5 |
| 20260505123009 | 64 | 148 | 0.0 | 1.0 | 0.00 | 0.00 | 0.00 | 99 | 1054.3 |
| 20260505122507 | 64 | 109 | 0.0 | 2.0 | 0.00 | 0.00 | 0.00 | 99 | 1054.5 |
| 20260505122004 | 63 | 229 | 0.0 | 1.0 | 0.00 | 0.00 | 0.00 | 99 | 1054.2 |
| 20260505121500 | 63 | 182 | 0.0 | 1.0 | 0.00 | 0.00 | 0.00 | 99 | 1054.4 |
| 20260505120956 | 62 | 189 | 0.0 | 1.0 | 0.00 | 0.00 | 0.00 | 99 | 1054.1 |
| 20260505120453 | 62 | 118 | 0.0 | 0.0 | 0.00 | 0.00 | 0.00 | 99 | 1054.2 |
| 20260505115952 | 62 | 144 | 0.0 | 0.0 | 0.00 | 0.00 | 0.00 | 99 | 1054.1 |
| 20260505115449 | 62 | 118 | 0.0 | 0.0 | 0.00 | 0.00 | 0.00 | 99 | 1054.1 |
| 20260505114947 | 62 | 143 | 0.0 | 0.0 | 0.00 | 0.00 | 0.00 | 99 | 1053.9 |
| 20260505114443 | 62 | 228 | 0.0 | 1.0 | 0.00 | 0.00 | 0.00 | 99 | 1053.7 |
| 20260505113940 | 62 | 102 | 0.0 | 0.0 | 0.00 | 0.00 | 0.00 | 99 | 1053.9 |
| 20260505113436 | 62 | 188 | 0.0 | 2.0 | 0.00 | 0.00 | 0.00 | 99 | 1054.1 |
| 20260505112931 | 62 | 168 | 0.0 | 1.0 | 0.00 | 0.00 | 0.00 | 99 | 1054.0 |
| 20260505112429 | 62 | 100 | 0.0 | 0.0 | 0.00 | 0.00 | 0.00 | 99 | 1053.9 |
| 20260505111925 | 63 | 189 | 0.0 | 0.0 | 0.00 | 0.00 | 0.00 | 99 | 1053.9 |
| 20260505111420 | 63 | 181 | 0.0 | 0.0 | 0.00 | 0.00 | 0.00 | 99 | 1054.0 |
| 20260505110917 | 63 | 174 | 0.0 | 0.0 | 0.00 | 0.00 | 0.00 | 99 | 1053.7 |
| 20260505110414 | 63 | 160 | 0.0 | 1.0 | 0.00 | 0.00 | 0.00 | 99 | 1053.7 |